﻿測定場所 (Monitoring sites),日付 (Measurement date),時間 (Measurement time),線量率 最大値 (max) μGy/h,線量率 最小値 (min) μGy/h,線量率 平均値 (average) μGy/h,
大田 (Ota),2014-02-16,23:01～24:00,0.0475,0.0406,0.0443,
大田 (Ota),2014-02-16,22:01～23:00,0.0464,0.0399,0.0435,
大田 (Ota),2014-02-16,21:01～22:00,0.0459,0.0408,0.0436,
大田 (Ota),2014-02-16,20:01～21:00,0.0462,0.0396,0.0439,
大田 (Ota),2014-02-16,19:01～20:00,0.0495,0.0402,0.0441,
大田 (Ota),2014-02-16,18:01～19:00,0.0460,0.0403,0.0434,
大田 (Ota),2014-02-16,17:01～18:00,0.0474,0.0407,0.0437,
大田 (Ota),2014-02-16,16:01～17:00,0.0479,0.0402,0.0439,
大田 (Ota),2014-02-16,15:01～16:00,0.0476,0.0411,0.0433,
大田 (Ota),2014-02-16,14:01～15:00,0.0462,0.0402,0.0434,
大田 (Ota),2014-02-16,13:01～14:00,0.0466,0.0393,0.0431,
大田 (Ota),2014-02-16,12:01～13:00,0.0481,0.0393,0.0431,
大田 (Ota),2014-02-16,11:01～12:00,0.0451,0.0386,0.0418,
大田 (Ota),2014-02-16,10:01～11:00,0.0446,0.0367,0.0404,
大田 (Ota),2014-02-16,09:01～10:00,0.0420,0.0362,0.0392,
大田 (Ota),2014-02-16,08:01～09:00,0.0417,0.0353,0.0384,
大田 (Ota),2014-02-16,07:01～08:00,0.0407,0.0352,0.0377,
大田 (Ota),2014-02-16,06:01～07:00,0.0406,0.0360,0.0377,
大田 (Ota),2014-02-16,05:01～06:00,0.0413,0.0358,0.0380,
大田 (Ota),2014-02-16,04:01～05:00,0.0399,0.0354,0.0376,
大田 (Ota),2014-02-16,03:01～04:00,0.0415,0.0356,0.0372,
大田 (Ota),2014-02-16,02:01～03:00,0.0406,0.0354,0.0371,
大田 (Ota),2014-02-16,01:01～02:00,0.0409,0.0347,0.0369,
大田 (Ota),2014-02-16,00:01～01:00,0.0404,0.0342,0.0368,
大田 (Ota),2014-02-15,23:01～24:00,0.0390,0.0343,0.0367,
大田 (Ota),2014-02-15,22:01～23:00,0.0394,0.0341,0.0362,
大田 (Ota),2014-02-15,21:01～22:00,0.0389,0.0345,0.0364,
大田 (Ota),2014-02-15,20:01～21:00,0.0388,0.0342,0.0362,
大田 (Ota),2014-02-15,19:01～20:00,0.0384,0.0342,0.0359,
大田 (Ota),2014-02-15,18:01～19:00,0.0374,0.0342,0.0359,
大田 (Ota),2014-02-15,17:01～18:00,0.0381,0.0333,0.0355,
大田 (Ota),2014-02-15,16:01～17:00,0.0361,0.0323,0.0343,
大田 (Ota),2014-02-15,15:01～16:00,0.0352,0.0317,0.0336,
大田 (Ota),2014-02-15,14:01～15:00,0.0351,0.0312,0.0327,
大田 (Ota),2014-02-15,13:01～14:00,0.0340,0.0301,0.0320,
大田 (Ota),2014-02-15,12:01～13:00,0.0328,0.0290,0.0309,
大田 (Ota),2014-02-15,11:01～12:00,0.0331,0.0290,0.0308,
大田 (Ota),2014-02-15,10:01～11:00,0.0350,0.0295,0.0319,
大田 (Ota),2014-02-15,09:01～10:00,0.0393,0.0334,0.0358,
大田 (Ota),2014-02-15,08:01～09:00,0.0400,0.0348,0.0370,
大田 (Ota),2014-02-15,07:01～08:00,0.0368,0.0312,0.0335,
大田 (Ota),2014-02-15,06:01～07:00,0.0358,0.0312,0.0335,
大田 (Ota),2014-02-15,05:01～06:00,0.0343,0.0299,0.0321,
大田 (Ota),2014-02-15,04:01～05:00,0.0338,0.0292,0.0313,
大田 (Ota),2014-02-15,03:01～04:00,0.0349,0.0313,0.0330,
大田 (Ota),2014-02-15,02:01～03:00,0.0393,0.0308,0.0344,
大田 (Ota),2014-02-15,01:01～02:00,0.0439,0.0349,0.0387,
大田 (Ota),2014-02-15,00:01～01:00,0.0493,0.0400,0.0441,
大田 (Ota),2014-02-14,23:01～24:00,0.0503,0.0426,0.0457,
大田 (Ota),2014-02-14,22:01～23:00,0.0496,0.0434,0.0465,
大田 (Ota),2014-02-14,21:01～22:00,0.0494,0.0416,0.0456,
大田 (Ota),2014-02-14,20:01～21:00,0.0487,0.0424,0.0457,
大田 (Ota),2014-02-14,19:01～20:00,0.0507,0.0437,0.0481,
大田 (Ota),2014-02-14,18:01～19:00,0.0533,0.0470,0.0500,
大田 (Ota),2014-02-14,17:01～18:00,0.0548,0.0476,0.0512,
大田 (Ota),2014-02-14,16:01～17:00,0.0568,0.0495,0.0528,
大田 (Ota),2014-02-14,15:01～16:00,0.0572,0.0490,0.0534,
大田 (Ota),2014-02-14,14:01～15:00,0.0550,0.0459,0.0507,
大田 (Ota),2014-02-14,13:01～14:00,0.0529,0.0439,0.0487,
大田 (Ota),2014-02-14,12:01～13:00,0.0514,0.0444,0.0477,
大田 (Ota),2014-02-14,11:01～12:00,0.0508,0.0425,0.0465,
大田 (Ota),2014-02-14,10:01～11:00,0.0501,0.0449,0.0474,
大田 (Ota),2014-02-14,09:01～10:00,0.0498,0.0419,0.0465,
大田 (Ota),2014-02-14,08:01～09:00,0.0515,0.0444,0.0477,
大田 (Ota),2014-02-14,07:01～08:00,0.0532,0.0452,0.0486,
大田 (Ota),2014-02-14,06:01～07:00,0.0516,0.0444,0.0478,
大田 (Ota),2014-02-14,05:01～06:00,0.0504,0.0439,0.0466,
大田 (Ota),2014-02-14,04:01～05:00,0.0499,0.0426,0.0459,
大田 (Ota),2014-02-14,03:01～04:00,0.0475,0.0412,0.0444,
大田 (Ota),2014-02-14,02:01～03:00,0.0479,0.0412,0.0445,
大田 (Ota),2014-02-14,01:01～02:00,0.0468,0.0409,0.0439,
大田 (Ota),2014-02-14,00:01～01:00,0.0486,0.0413,0.0440,
大田 (Ota),2014-02-13,23:01～24:00,0.0470,0.0412,0.0439,
大田 (Ota),2014-02-13,22:01～23:00,0.0475,0.0409,0.0439,
大田 (Ota),2014-02-13,21:01～22:00,0.0472,0.0389,0.0438,
大田 (Ota),2014-02-13,20:01～21:00,0.0474,0.0404,0.0439,
大田 (Ota),2014-02-13,19:01～20:00,0.0494,0.0416,0.0445,
大田 (Ota),2014-02-13,18:01～19:00,0.0473,0.0407,0.0441,
大田 (Ota),2014-02-13,17:01～18:00,0.0465,0.0411,0.0439,
大田 (Ota),2014-02-13,16:01～17:00,0.0476,0.0406,0.0440,
大田 (Ota),2014-02-13,15:01～16:00,0.0488,0.0407,0.0442,
大田 (Ota),2014-02-13,14:01～15:00,0.0471,0.0412,0.0439,
大田 (Ota),2014-02-13,13:01～14:00,0.0490,0.0417,0.0441,
大田 (Ota),2014-02-13,12:01～13:00,0.0482,0.0411,0.0444,
大田 (Ota),2014-02-13,11:01～12:00,0.0477,0.0416,0.0445,
大田 (Ota),2014-02-13,10:01～11:00,0.0471,0.0414,0.0442,
大田 (Ota),2014-02-13,09:01～10:00,0.0484,0.0410,0.0443,
大田 (Ota),2014-02-13,08:01～09:00,0.0498,0.0419,0.0450,
大田 (Ota),2014-02-13,07:01～08:00,0.0488,0.0406,0.0442,
大田 (Ota),2014-02-13,06:01～07:00,0.0474,0.0406,0.0444,
大田 (Ota),2014-02-13,05:01～06:00,0.0481,0.0412,0.0444,
大田 (Ota),2014-02-13,04:01～05:00,0.0476,0.0415,0.0446,
大田 (Ota),2014-02-13,03:01～04:00,0.0489,0.0412,0.0445,
大田 (Ota),2014-02-13,02:01～03:00,0.0478,0.0403,0.0445,
大田 (Ota),2014-02-13,01:01～02:00,0.0476,0.0400,0.0445,
大田 (Ota),2014-02-13,00:01～01:00,0.0472,0.0410,0.0443,
大田 (Ota),2014-02-12,23:01～24:00,0.0463,0.0406,0.0438,
大田 (Ota),2014-02-12,22:01～23:00,0.0483,0.0408,0.0442,
大田 (Ota),2014-02-12,21:01～22:00,0.0473,0.0415,0.0441,
大田 (Ota),2014-02-12,20:01～21:00,0.0462,0.0411,0.0439,
大田 (Ota),2014-02-12,19:01～20:00,0.0471,0.0407,0.0441,
大田 (Ota),2014-02-12,18:01～19:00,0.0468,0.0412,0.0442,
大田 (Ota),2014-02-12,17:01～18:00,0.0470,0.0407,0.0440,
大田 (Ota),2014-02-12,16:01～17:00,0.0468,0.0415,0.0441,
大田 (Ota),2014-02-12,15:01～16:00,0.0485,0.0410,0.0441,
大田 (Ota),2014-02-12,14:01～15:00,0.0478,0.0413,0.0443,
大田 (Ota),2014-02-12,13:01～14:00,0.0483,0.0414,0.0442,
大田 (Ota),2014-02-12,12:01～13:00,0.0476,0.0410,0.0443,
大田 (Ota),2014-02-12,11:01～12:00,0.0466,0.0405,0.0441,
大田 (Ota),2014-02-12,10:01～11:00,0.0474,0.0419,0.0444,
大田 (Ota),2014-02-12,09:01～10:00,0.0470,0.0407,0.0441,
大田 (Ota),2014-02-12,08:01～09:00,0.0473,0.0411,0.0439,
大田 (Ota),2014-02-12,07:01～08:00,0.0467,0.0404,0.0438,
大田 (Ota),2014-02-12,06:01～07:00,0.0473,0.0396,0.0437,
大田 (Ota),2014-02-12,05:01～06:00,0.0468,0.0400,0.0440,
大田 (Ota),2014-02-12,04:01～05:00,0.0468,0.0408,0.0441,
大田 (Ota),2014-02-12,03:01～04:00,0.0479,0.0416,0.0440,
大田 (Ota),2014-02-12,02:01～03:00,0.0483,0.0412,0.0440,
大田 (Ota),2014-02-12,01:01～02:00,0.0476,0.0403,0.0436,
大田 (Ota),2014-02-12,00:01～01:00,0.0466,0.0404,0.0434,
大田 (Ota),2014-02-11,23:01～24:00,0.0460,0.0394,0.0433,
大田 (Ota),2014-02-11,22:01～23:00,0.0468,0.0406,0.0435,
大田 (Ota),2014-02-11,21:01～22:00,0.0460,0.0405,0.0431,
大田 (Ota),2014-02-11,20:01～21:00,0.0467,0.0409,0.0434,
大田 (Ota),2014-02-11,19:01～20:00,0.0472,0.0398,0.0437,
大田 (Ota),2014-02-11,18:01～19:00,0.0457,0.0397,0.0432,
大田 (Ota),2014-02-11,17:01～18:00,0.0456,0.0406,0.0432,
大田 (Ota),2014-02-11,16:01～17:00,0.0462,0.0409,0.0431,
大田 (Ota),2014-02-11,15:01～16:00,0.0456,0.0396,0.0428,
大田 (Ota),2014-02-11,14:01～15:00,0.0457,0.0404,0.0429,
大田 (Ota),2014-02-11,13:01～14:00,0.0461,0.0404,0.0431,
大田 (Ota),2014-02-11,12:01～13:00,0.0470,0.0403,0.0434,
大田 (Ota),2014-02-11,11:01～12:00,0.0463,0.0398,0.0429,
大田 (Ota),2014-02-11,10:01～11:00,0.0464,0.0400,0.0428,
大田 (Ota),2014-02-11,09:01～10:00,0.0467,0.0401,0.0428,
大田 (Ota),2014-02-11,08:01～09:00,0.0453,0.0385,0.0425,
大田 (Ota),2014-02-11,07:01～08:00,0.0469,0.0394,0.0426,
大田 (Ota),2014-02-11,06:01～07:00,0.0469,0.0403,0.0426,
大田 (Ota),2014-02-11,05:01～06:00,0.0463,0.0399,0.0433,
大田 (Ota),2014-02-11,04:01～05:00,0.0485,0.0405,0.0443,
大田 (Ota),2014-02-11,03:01～04:00,0.0472,0.0400,0.0433,
大田 (Ota),2014-02-11,02:01～03:00,0.0443,0.0397,0.0420,
大田 (Ota),2014-02-11,01:01～02:00,0.0449,0.0386,0.0420,
大田 (Ota),2014-02-11,00:01～01:00,0.0450,0.0387,0.0420,
大田 (Ota),2014-02-10,23:01～24:00,0.0455,0.0381,0.0417,
大田 (Ota),2014-02-10,22:01～23:00,0.0443,0.0389,0.0416,
大田 (Ota),2014-02-10,21:01～22:00,0.0457,0.0376,0.0418,
大田 (Ota),2014-02-10,20:01～21:00,0.0459,0.0385,0.0414,
大田 (Ota),2014-02-10,19:01～20:00,0.0444,0.0385,0.0411,
大田 (Ota),2014-02-10,18:01～19:00,0.0451,0.0374,0.0410,
大田 (Ota),2014-02-10,17:01～18:00,0.0457,0.0388,0.0413,
大田 (Ota),2014-02-10,16:01～17:00,0.0439,0.0375,0.0407,
大田 (Ota),2014-02-10,15:01～16:00,0.0446,0.0369,0.0408,
大田 (Ota),2014-02-10,14:01～15:00,0.0442,0.0378,0.0402,
大田 (Ota),2014-02-10,13:01～14:00,0.0422,0.0369,0.0398,
大田 (Ota),2014-02-10,12:01～13:00,0.0422,0.0369,0.0393,
大田 (Ota),2014-02-10,11:01～12:00,0.0427,0.0364,0.0385,
大田 (Ota),2014-02-10,10:01～11:00,0.0401,0.0354,0.0376,
大田 (Ota),2014-02-10,09:01～10:00,0.0402,0.0354,0.0372,
大田 (Ota),2014-02-10,08:01～09:00,0.0402,0.0351,0.0373,
大田 (Ota),2014-02-10,07:01～08:00,0.0398,0.0352,0.0370,
大田 (Ota),2014-02-10,06:01～07:00,0.0394,0.0351,0.0370,
大田 (Ota),2014-02-10,05:01～06:00,0.0395,0.0352,0.0370,
大田 (Ota),2014-02-10,04:01～05:00,0.0407,0.0349,0.0369,
大田 (Ota),2014-02-10,03:01～04:00,0.0414,0.0352,0.0370,
大田 (Ota),2014-02-10,02:01～03:00,0.0399,0.0349,0.0367,
大田 (Ota),2014-02-10,01:01～02:00,0.0409,0.0349,0.0369,
大田 (Ota),2014-02-10,00:01～01:00,0.0395,0.0349,0.0367,
